www.pogodaiklimat.ru

Погода и климат >> Архив погоды >> Иордания >> Эль-Мафрак


ПОГОДА в Эль-Мафраке

  • Прогноз погоды в Эль-Мафраке
  • Монитор погоды в Эль-Мафраке

АРХИВ ПОГОДЫ в Эль-Мафраке

Время (UTC), дата Ветер
(напр.,м/с)
 
Видим.   Явления Облачность Т
(С)
Тd
(С)
f
(%)
Тe
(С)
Тes
(С)
Комфортность P
(гПа)
Po
(гПа)
Тmin
(С)
Tmax
(С)
R
(мм)
R24
(мм)
S
(см)
12 11.08 СЗ 6 5000 м мгла ясно +33.0 +12.1 28 +33 +38 жарко 1005.8 930.5
18 11.08 СЗ 3 10 км ясно +25.6 +15.6 54 +29 +29 душно 1006.6 931.2 +33.5
21 11.08 штиль 0 10 км ясно +22.0 +17.3 75 +26 +26 душно 1006.8 931.6
00 12.08 штиль 0 10 км ясно +20.2 +16.0 77 +23 +23 комфорт 1006.2 931.4
03 12.08 штиль 0 3000 м дымка 4/4 750 м
[Cu hum]
+20.4 +18.2 87 +24 +24 комфорт 1006.4 931.3
06 12.08 СЗ 3 5000 м мгла 3/3 750 м
[Cu hum]
+23.4 +18.2 73 +29 +34 душно 1007.2 931.0 +19.0
09 12.08 СЗ 3 6000 м мгла ясно +31.2 +6.3 21 +30 +46 жарко 1006.1 931.8
12 12.08 З 7 6000 м мгла ясно +33.6 +8.4 21 +32 +36 жарко 1005.4 930.9
15 12.08 СЗ 7 6000 м мгла ясно +32.2 +8.7 23 +31 +31 жарко 1005.0 1030.2
18 12.08 З 5 8000 м мгла ясно +26.8 +16.1 52 +30 +30 душно 1006.2 931.0 +34.2
21 12.08 С 3 10 км ясно +23.0 +12.1 50 +26 +26 жарко 1006.3 931.6
00 13.08 штиль 0 10 км ясно +20.4 +14.1 67 +23 +23 комфорт 1005.9 931.2
03 13.08 штиль 0 4000 м мгла ясно +19.0 +7.2 46 +19 +19 1006.1 931.0
06 13.08 СЗ 5 5000 м мгла ясно +29.4 +2.7 18 +27 +31 жарко 1005.9 931.4 +18.0
09 13.08 З 6 8000 м мгла ясно +33.6 -4.9 8 +30 +37 жарко 1005.9 931.5
12 13.08 СЗ 7 5000 м мгла ясно +34.8 +3.9 15 +32 +36 жарко 1005.3 930.8
15 13.08 З 7 8000 м мгла ясно +32.0 +0.2 13 +29 +29 жарко 1006.1 930.8
18 13.08 СЗ 2 8000 м мгла ясно +28.0 +5.8 24 +27 +27 жарко 1007.6 931.9 +35.0
00 14.08 штиль 0 10 км 4/0
[Ac trans]
+20.0 +6.6 42 +21 +21 комфорт 1006.5 931.7
03 14.08 штиль 0 5000 м мгла ясно +20.0 +4.4 36 +20 +20 1007.0 932.0
06 14.08 СЗ 3 5000 м мгла ясно +28.0 +6.9 26 +27 +34 жарко 1007.6 932.5 +20.0
09 14.08 З 5 5000 м мгла ясно +32.0 +2.0 15 +29 +39 жарко 1007.7 933.5
12 14.08 СЗ 6 6000 м мгла ясно +33.6 +13.0 29 +34 +39 очень
жарко
1007.4 932.5
15 14.08 СЗ 7 6000 м мгла ясно +31.6 +14.0 34 +33 +33 жарко 1007.9 932.7
18 14.08 СЗ 4 7000 м ясно +24.8 +11.0 42 +26 +26 жарко 1008.7 932.7 +33.8
21 14.08 штиль 0 10 км ясно +21.0 +10.8 52 +23 +23 комфорт 1008.6 933.6
00 15.08 СЗ 2 10 км ясно +18.4 +11.3 63 +19 +19 1008.9 931.3
06 15.08 ЮЗ 3 5000 м мгла ясно +23.6 +8.7 39 +24 +31 комфорт 1009.6 933.2 +15.8
09 15.08 СЗ 7 6000 м мгла ясно +31.2 +10.8 28 +31 +36 жарко 1008.0 933.6
12 15.08 СЗ 9 5000 м мгла ясно +31.6 +13.2 33 +33 +34 жарко 1008.8 933.4
15 15.08 З 9 5000 м мгла ясно +29.6 +11.1 32 +30 +30 жарко 1008.6 933.6
18 15.08 СЗ 3 10 км ясно +25.2 +11.6 43 +27 +27 жарко 1011.1 935.4 +32.0
21 15.08 штиль 0 10 км ясно +22.6 +11.6 50 +25 +25 комфорт 1011.1 935.6
00 16.08 Ю 2 10 км ясно +18.6 +9.9 57 +20 +20 1010.0 932.3
03 16.08 штиль 0 7000 м мгла ясно +16.0 +8.2 60 +16 +16 1010.6 934.5
06 16.08 штиль 0 7000 м мгла ясно +26.8 +9.8 34 +27 +38 жарко 1010.5 935.1 +16.2
09 16.08 З 3 7000 м мгла ясно +34.8 +3.9 15 +32 +48 жарко 1009.7 936.0
12 16.08 З 8 6000 м пыльный позёмок ясно +36.5 +5.3 15 +34 +36 очень
жарко
1007.9 933.2
15 16.08 З 5 6000 м мгла ясно +33.2 +8.8 22 +32 +33 жарко 1008.7 933.2
18 16.08 СЗ 3 10 км ясно +27.2 +8.8 31 +27 +27 жарко 1008.6 933.2 +36.8
21 16.08 штиль 0 10 км ясно +19.5 +9.9 54 +20 +20 1008.5 931.2
00 17.08 штиль 0 10 км ясно +18.8 +10.6 59 +19 +19 1008.1 930.6
03 17.08 штиль 0 10 км ясно +17.4 +8.1 54 +17 +17 1009.1 933.7
06 17.08 СЗ 3 7000 м мгла 3/3 900 м
[Cu hum]
+23.4 +18.8 75 +30 +35 очень
душно
1009.7 934.3 +16.4
09 17.08 СЗ 5 6000 м мгла ясно +29.0 +16.6 47 +32 +42 душно 1009.6 933.9
12 17.08 З 5 6000 м мгла ясно +31.5 +12.8 32 +32 +39 жарко 1008.2 932.9
15 17.08 СЗ 7 7000 м мгла ясно +29.8 +15.1 41 +32 +33 душно 1008.1 932.4
18 17.08 З 4 10 км ясно +24.2 +18.0 68 +28 +28 душно 1008.3 932.6 +32.2
21 17.08 З 3 10 км ясно +21.5 +16.9 75 +25 +25 комфорт 1007.9 932.6
00 18.08 штиль 0 10 км ясно +18.2 +16.5 90 +19 +19 1007.9 932.5
03 18.08 штиль 0 5000 м дымка 5/5 900 м
[Cu hum]
+20.5 +18.2 87 +24 +24 комфорт 1007.8 932.5
06 18.08 СЗ 3 4000 м мгла 4/4 900 м
[Cu hum]
+23.6 +18.0 71 +28 +32 душно 1008.3 932.7 +17.2
09 18.08 СЗ 3 6000 м мгла 1/1 1000 м
[Cu Sc Ac trans]
+28.5 +15.0 44 +31 +47 душно 1008.1 932.6

 

Местоположение метеостанции Эль-Мафрак (Иордания): широта 32.37 долгота 36.25 высота над уровнем моря 683 м.

В архиве по умолчанию представлена погода в Эль-Мафраке за последнюю неделю. Архивные данные за месяц целиком и за предыдущие месяцы, начиная с января 2011 года, Вы можете получить, выбрав интересующий диапазон дат из раскрывающегося списка и нажав кнопку "Ввод!".


*Определитесь, кто Вы:
робот инопланетянин человек

Внимание! Время в таблицах - всемирное. Для получения местного времени необходимо прибавить поправку, которая равна 2 ч.

Смотрите также архив погоды в соседних городах и на ближайших метеорологических станциях:

Погода в Даръа (Сирия) (29 км)
Погода в Ирбиде (Иордания) (43 км)
Погода в Аммане (Иордания) (50 км)
Погода в Аэропорту Королева Алия (Иордания) (77 км)
Погода в Аэропорту Принц Хассан (Иордания) (85 км)
Погода в Цфате (Израиль) (97 км)
Погода в Капернауме (Израиль) (102 км)
Погода в Иерусалиме (Израиль) (118 км)
Погода в Афеке (Израиль) (119 км)
Погода в Дамаске (Сирия) (119 км)

Пояснения к столбцам:

Ветер - указаны скорость ветра в м/с - средняя за 10 мин, порывы в срок и между сроками (в фигурных скобках) и направление, откуда дует ветер: С - северный, СВ - северо-восточный, В - восточный, ЮВ - юго-восточный, Ю - южный, ЮЗ - юго-западный, З - западный, СЗ - северо-западный.
Видимость - горизонтальная дальность видимости в метрах или километрах. При видимости от 1 до 10 км при отсутствии осадков обычно наблюдается дымка, при ухудшении видимости до 1 км и менее - туман. В сухую погоду видимость может ухудшаться дымом, пылью или мглою.
Явления - указаны атмосферные явления, наблюдавшиеся в срок или в последний час перед сроком; фигурными скобками обозначены явления, наблюдавшиеся между сроками (за 1-3 часа до срока); квадратными скобками обозначены град или гололедные отложения с указанием их диаметра в мм.
Облачность - указаны через наклонную черту общая и нижняя облачность в баллах и высота нижней границы облаков в метрах; квадратными скобками обозначены формы облаков: Ci - перистые, Cs - перисто-слоистые, Cc - перисто-кучевые, Ac - высококучевые, As - высокослоистые, Sc - слоисто-кучевые, Ns - слоисто-дождевые, Cu - кучевые, Cb - кучево-дождевые. Подробнее классификацию облаков см. в Атласе облаков (PDF).
T - Температура воздуха - температура, измеренная на высоте 2 м над землей.
Td - Температура точки росы - температура, при понижении до которой содержащийся в воздухе водяной пар достигнет насыщения.
f - Относительная влажность воздуха - влажноcть воздуха, измеренная на высоте 2 м над землей.
Te - Эффективная температура - температура, которую ощущает одетый по сезону человек в тени. Характеристика душности погоды. При расчете учитывается влияние влажности воздуха и скорости ветра на теплоощущения человека.
Tes - Эффективная температура на солнце - температура, которую ощущает человек, с поправкой на солнечный нагрев. Характеристика знойности погоды. Зависит от высоты солнца над горизонтом, облачности и скорости ветра. Ночью, в пасмурную погоду, а также при ветре 12 м/с и более поправка равна нулю.
P - Атмосферное давление - приведенное к уровню моря атмосферное давление.
Po - Атмосферное давление - измеренное на уровне метеостанции атмосферное давление.
Tmin - Минимальная температура - минимум температуры воздуха на высоте 2 м над землей.
Tmax - Максимальная температура - максимум температуры воздуха на высоте 2 м над землей.
R - Количество осадков - Количество выпавших осадков за период времени, мм. При наведении курсора мыши на число - период времени, за который выпало указанное количество осадков.
R24 - Количество осадков - Количество выпавших осадков за 24 часа, мм.
S - Снежный покров - Высота снежного покрова, см. При наведении курсора мыши на число - состояние снежного покрова и степень покрытия местности в баллах.